Location: St. Louis
(38.6270°N, 90.1994°W)
Time: 09:25:52
(UTC-06:00)

SR - Pass Details

Date: 03 December 2021
Orbit: 582 x 872 km, 66.7° (Epoch: 21 January)

Event Time Altitude Azimuth Distance (km) Brightness Sun altitude
Rises 01:03:53 0° 262° (W) 2,955 - -67.3°
Reaches altitude 10° 01:08:04 10° 299° (WNW) 1,984 - -66.6°
Maximum altitude 01:09:15 11° 315° (NW) 1,909 - -66.4°
Drops below altitude 10° 01:10:27 10° 331° (NNW) 1,957 - -66.3°
Sets 01:14:28 0° 8° (N) 2,826 - -65.6°
